Simultaneous Nadir Overpasses (SNOs) Predictions

Prediction of SNOs between AQUA and GOES-15 Satellite Orbit:

Table of predicted SNOs for the next 14.0 days since TLE Epoch: 6/7/2019
Index Date Time (AQUA) AQUA Lat,Lon GOES-15 Lat,Lon Distance(km) Time Diff (sec)
1 06/08/2019 10:13:18 0.19,-129.39 -0.02,-128.38 114.08 80
2 06/10/2019 10:01:07 -0.43,-126.43 -0.02,-128.36 219.60 80
3 06/10/2019 22:22:31 -0.66,-131.63 0.03,-128.35 372.37 80
4 06/12/2019 22:10:19 -0.03,-128.67 0.03,-128.32 38.94 80
5 06/14/2019 21:58:07 0.60,-125.71 0.03,-128.29 294.02 80
6 06/15/2019 10:19:22 0.49,-130.87 -0.05,-128.29 292.89 80
7 06/17/2019 10:07:10 -0.14,-127.91 -0.05,-128.25 39.43 80
8 06/19/2019 09:54:58 -0.78,-124.95 -0.05,-128.21 371.38 80
9 06/19/2019 22:16:22 -0.35,-130.14 0.07,-128.19 221.56 80




NCC Satellite Simultaneous Nadir Overpasses (SNOs) Prediction Service
